Weather in Charlston

United States     38°20′51″N   81°37′42″W
temp.,
°C
wind,
m/s
gust,
m/s
humid.,
%
clouds,
%
prec.,
mm/h
press.,
hPa
HPBL,
m
7 may, fri
fri723:00+7ese2267100 0.0 101615
02:00+7se1171100 0.0 101410
05:00+8sw2865100 0.0 1012329
08:00+8nw2699100 7.4 1014487
11:00+9nw5995100 1.8 1015926
14:00+14wnw69405 2.6 10152253
17:00+15nw5940100 0.0 10142510
20:00+10w387029 0.1 1014295
8 may, sat
sat823:00+8wsw2997100 0.7 1015460
02:00+7wnw389834 2.6 1015516
05:00+3w29985 0.0 1018324
08:00+4w27951 0.0 1020313
11:00+10wnw47455 0.0 10201411
14:00+14wnw46310 0.0 10191923
17:00+15wnw453121 0.0 10182061
20:00+10nw116080 0.0 101910
9 may, sun
sun923:00+7sse1162100 0.0 102010
02:00+7ese1183100 0.3 102022
05:00+7ese2784100 0.0 1016219
08:00+11sse31377100 0.0 1013457
11:00+21ssw71850100 0.0 10101452
14:00+19sw72257100 0.1 10091932
17:00+26sw72041100 0.0 10062936
20:00+21sw71950100 0.0 10072050
10 may, mon
mon1023:00+20sw81854100 0.1 10081650
02:00+17sw61783100 0.9 10081202
05:00+13nnw5798100 1.4 1010413
08:00+8nnw2598100 1.9 1015423
11:00+8n2396100 0.6 1017386
14:00+9nw0292100 0.6 1018283
17:00+13e1274100 0.1 1018595
20:00+11s1187100 0.1 101915
11 may, tue
tue1123:00+10nnw248877 0.1 1021111
02:00+7nnw118873 0.1 102229
05:00+3n11955 0.0 102413
08:00+5n13820 0.0 1026196
11:00+12nnw35435 0.0 10261589
14:00+15nnw47325 0.0 10242090
17:00+16nnw57315 0.0 10242179
20:00+10n37540 0.0 1027246